Hourly Weather Brasília

Today, 19 January, Tuesday

Time Temperature Precipitation Wind Pressure Humidity
00:00 +20°C° 0.1 mm 1 mps 665 mmHg 85%
01:00 +20°C° 0.4 mm 1 mps 664 mmHg 86%
02:00 +20°C° 0.4 mm 1 mps 664 mmHg 87%
03:00 +20°C° 0.4 mm 1 mps 664 mmHg 88%
04:00 +20°C° 0.1 mm 1 mps 664 mmHg 87%
05:00 +20°C° 0.1 mm 1 mps 664 mmHg 87%
06:00 +19°C° 0.1 mm 1 mps 664 mmHg 87%
07:00 +20°C° 0 mm 2 mps 665 mmHg 83%
08:00 +21°C° 0 mm 2 mps 666 mmHg 79%
09:00 +24°C° 0 mm 3 mps 666 mmHg 74%
10:00 +25°C° 0.1 mm 3 mps 666 mmHg 70%
11:00 +26°C° 0.1 mm 3 mps 667 mmHg 66%
12:00 +27°C° 0.1 mm 3 mps 667 mmHg 62%
13:00 +27°C° 0.1 mm 3 mps 666 mmHg 61%
14:00 +27°C° 0.1 mm 4 mps 666 mmHg 59%
15:00 +28°C° 0.1 mm 4 mps 665 mmHg 58%
16:00 +27°C° 0 mm 3 mps 665 mmHg 63%
17:00 +26°C° 0 mm 3 mps 664 mmHg 68%
18:00 +25°C° 0 mm 3 mps 664 mmHg 73%
19:00 +23°C° 0 mm 2 mps 664 mmHg 76%
20:00 +21°C° 0 mm 2 mps 664 mmHg 78%
21:00 +20°C° 0 mm 2 mps 665 mmHg 81%
22:00 +20°C° 0 mm 1 mps 665 mmHg 80%
23:00 +20°C° 0 mm 1 mps 665 mmHg 80%

Tomorrow, 20 January, Wednesday

Time Temperature Precipitation Wind Pressure Humidity
00:00 +20°C° 0 mm 1 mps 665 mmHg 79%
01:00 +19°C° 0 mm 1 mps 665 mmHg 78%
02:00 +19°C° 0 mm 1 mps 665 mmHg 76%
03:00 +19°C° 0 mm 1 mps 664 mmHg 75%
04:00 +19°C° 0 mm 1 mps 664 mmHg 74%
05:00 +18°C° 0 mm 1 mps 664 mmHg 74%
06:00 +18°C° 0 mm 1 mps 664 mmHg 73%
07:00 +19°C° 0 mm 2 mps 665 mmHg 73%
08:00 +20°C° 0 mm 2 mps 666 mmHg 72%
09:00 +22°C° 0 mm 3 mps 666 mmHg 71%
10:00 +24°C° 0.1 mm 3 mps 667 mmHg 66%
11:00 +26°C° 0.1 mm 3 mps 667 mmHg 61%
12:00 +27°C° 0.1 mm 3 mps 667 mmHg 56%
13:00 +27°C° 0.2 mm 2 mps 666 mmHg 58%
14:00 +27°C° 0.2 mm 2 mps 665 mmHg 60%
15:00 +27°C° 0.2 mm 2 mps 665 mmHg 63%
16:00 +25°C° 0.6 mm 2 mps 664 mmHg 68%
17:00 +24°C° 0.6 mm 2 mps 664 mmHg 74%
18:00 +23°C° 0.6 mm 2 mps 663 mmHg 79%
19:00 +23°C° 0.2 mm 2 mps 664 mmHg 81%
20:00 +21°C° 0.2 mm 2 mps 664 mmHg 82%
21:00 +20°C° 0.2 mm 2 mps 664 mmHg 84%
22:00 +20°C° 0.3 mm 2 mps 665 mmHg 84%
23:00 +20°C° 0.3 mm 2 mps 665 mmHg 85%

Day after tomorrow, 21 January, Thursday

Time Temperature Precipitation Wind Pressure Humidity
00:00 +20°C° 0.3 mm 2 mps 665 mmHg 85%
01:00 +19°C° 0.3 mm 2 mps 665 mmHg 86%
02:00 +19°C° 0.3 mm 2 mps 665 mmHg 86%
03:00 +20°C° 0.3 mm 1 mps 664 mmHg 87%
04:00 +19°C° 0 mm 1 mps 664 mmHg 87%
05:00 +18°C° 0 mm 2 mps 665 mmHg 87%
06:00 +18°C° 0 mm 2 mps 665 mmHg 87%
07:00 +19°C° 0 mm 2 mps 665 mmHg 84%
08:00 +20°C° 0 mm 3 mps 666 mmHg 80%
09:00 +22°C° 0 mm 4 mps 667 mmHg 76%
10:00 +23°C° 0 mm 4 mps 667 mmHg 71%
11:00 +26°C° 0 mm 4 mps 667 mmHg 66%
12:00 +27°C° 0 mm 4 mps 667 mmHg 61%
13:00 +27°C° 0.1 mm 4 mps 666 mmHg 61%
14:00 +27°C° 0.1 mm 3 mps 666 mmHg 61%
15:00 +27°C° 0.1 mm 3 mps 665 mmHg 61%
16:00 +26°C° 0.3 mm 3 mps 665 mmHg 66%
17:00 +25°C° 0.3 mm 3 mps 665 mmHg 71%
18:00 +24°C° 0.3 mm 2 mps 664 mmHg 75%
19:00 +23°C° 0 mm 2 mps 665 mmHg 78%
20:00 +21°C° 0 mm 2 mps 665 mmHg 81%
21:00 +20°C° 0 mm 2 mps 665 mmHg 84%
22:00 +20°C° 0.4 mm 2 mps 665 mmHg 86%
23:00 +19°C° 0.4 mm 2 mps 666 mmHg 87%

22 January, Friday

Time Temperature Precipitation Wind Pressure Humidity
00:00 +19°C° 0.4 mm 2 mps 666 mmHg 89%
01:00 +19°C° 0.5 mm 2 mps 666 mmHg 88%
02:00 +19°C° 0.5 mm 2 mps 665 mmHg 86%
03:00 +21°C° 0.5 mm 1 mps 665 mmHg 84%
04:00 +19°C° 0 mm 2 mps 665 mmHg 85%
05:00 +19°C° 0 mm 2 mps 666 mmHg 86%
06:00 +19°C° 0 mm 2 mps 666 mmHg 87%
07:00 +20°C° 0 mm 3 mps 667 mmHg 85%
08:00 +21°C° 0 mm 3 mps 667 mmHg 83%
09:00 +22°C° 0 mm 4 mps 668 mmHg 80%
10:00 +23°C° 0 mm 4 mps 668 mmHg 75%
11:00 +25°C° 0 mm 4 mps 668 mmHg 70%
12:00 +27°C° 0 mm 4 mps 668 mmHg 64%
13:00 +27°C° 0.3 mm 4 mps 668 mmHg 64%
14:00 +27°C° 0.3 mm 4 mps 667 mmHg 63%
15:00 +27°C° 0.3 mm 3 mps 667 mmHg 63%
16:00 +26°C° 0.3 mm 3 mps 666 mmHg 68%
17:00 +25°C° 0.3 mm 3 mps 666 mmHg 73%
18:00 +24°C° 0.3 mm 2 mps 666 mmHg 78%
19:00 +23°C° 0.1 mm 2 mps 666 mmHg 81%
20:00 +21°C° 0.1 mm 2 mps 666 mmHg 84%
21:00 +20°C° 0.1 mm 2 mps 666 mmHg 87%
22:00 +20°C° 0 mm 2 mps 666 mmHg 87%
23:00 +19°C° 0 mm 2 mps 666 mmHg 88%

23 January, Saturday

Time Temperature Precipitation Wind Pressure Humidity
00:00 +19°C° 0 mm 2 mps 666 mmHg 88%
01:00 +19°C° 0 mm 2 mps 666 mmHg 88%
02:00 +18°C° 0 mm 2 mps 666 mmHg 87%
03:00 +18°C° 0 mm 2 mps 665 mmHg 87%
04:00 +18°C° 0 mm 2 mps 666 mmHg 87%
05:00 +18°C° 0 mm 3 mps 666 mmHg 87%
06:00 +18°C° 0 mm 3 mps 666 mmHg 87%
07:00 +19°C° 0 mm 3 mps 667 mmHg 83%
08:00 +20°C° 0 mm 4 mps 667 mmHg 80%
09:00 +22°C° 0 mm 4 mps 668 mmHg 76%
10:00 +23°C° 0 mm 4 mps 668 mmHg 71%
11:00 +25°C° 0 mm 4 mps 668 mmHg 65%
12:00 +27°C° 0 mm 4 mps 668 mmHg 60%
13:00 +27°C° 0.1 mm 4 mps 667 mmHg 59%
14:00 +27°C° 0.1 mm 3 mps 667 mmHg 58%
15:00 +28°C° 0.1 mm 3 mps 666 mmHg 57%
16:00 +27°C° 0.2 mm 3 mps 666 mmHg 63%
17:00 +26°C° 0.2 mm 2 mps 665 mmHg 69%
18:00 +25°C° 0.2 mm 2 mps 665 mmHg 75%
19:00 +23°C° 0.1 mm 2 mps 665 mmHg 78%
20:00 +21°C° 0.1 mm 2 mps 665 mmHg 81%
21:00 +20°C° 0.1 mm 2 mps 666 mmHg 84%
22:00 +20°C° 0 mm 2 mps 666 mmHg 85%
23:00 +19°C° 0 mm 2 mps 666 mmHg 86%

24 January, Sunday

Time Temperature Precipitation Wind Pressure Humidity
00:00 +19°C° 0 mm 2 mps 666 mmHg 86%
01:00 +18°C° 0 mm 2 mps 665 mmHg 86%
02:00 +18°C° 0 mm 2 mps 665 mmHg 85%
03:00 +18°C° 0 mm 2 mps 664 mmHg 85%
04:00 +18°C° 0 mm 2 mps 665 mmHg 85%
05:00 +17°C° 0 mm 2 mps 665 mmHg 85%
06:00 +17°C° 0 mm 2 mps 665 mmHg 86%
07:00 +19°C° 0 mm 3 mps 665 mmHg 82%
08:00 +20°C° 0 mm 3 mps 666 mmHg 78%
09:00 +22°C° 0 mm 4 mps 667 mmHg 75%
10:00 +23°C° 0 mm 4 mps 667 mmHg 70%
11:00 +26°C° 0 mm 4 mps 667 mmHg 65%
12:00 +27°C° 0 mm 3 mps 667 mmHg 60%
13:00 +27°C° 0.4 mm 3 mps 666 mmHg 62%
14:00 +27°C° 0.4 mm 3 mps 665 mmHg 63%
15:00 +26°C° 0.4 mm 2 mps 665 mmHg 65%
16:00 +26°C° 0.7 mm 2 mps 664 mmHg 70%
17:00 +25°C° 0.7 mm 2 mps 664 mmHg 75%
18:00 +24°C° 0.7 mm 2 mps 664 mmHg 80%
19:00 +23°C° 0.3 mm 1 mps 664 mmHg 82%
20:00 +22°C° 0.3 mm 1 mps 664 mmHg 84%
21:00 +20°C° 0.3 mm 1 mps 664 mmHg 85%
22:00 +20°C° 0.1 mm 1 mps 665 mmHg 86%
23:00 +20°C° 0.1 mm 1 mps 665 mmHg 86%
Show more